Terug naar catalogus

IRIS-F2

ActiefWetenschapSSO
NORAD 62684·PAYLOAD·🇹🇼 Taiwan

Gelanceerd Jan 14, 2025 vanaf Vandenberg Space Force Base

Loading…

Volgende Passages (komende 24 uur)

TLE

VersSource: Space-Track

Epoch: Sep 14, 2026, 11:22 UTC

1 62684U 25009CD  26257.47371810  .00005811  00000-0  21124-3 0  9993
2 62684  97.3832 336.4335 0006020  49.4522 310.7242 15.28635403150092

Volg IRIS-F2 in realtime met AllMySat

Download on the App Store